Year,Month,Day,Hour,Minute,Value (Times are PST for temperature in C)
2016,06,05,00,00,19.80
2016,06,05,00,01,19.70
2016,06,05,00,02,19.70
2016,06,05,00,03,19.70
2016,06,05,00,04,19.70
2016,06,05,00,05,19.70
2016,06,05,00,06,19.70
2016,06,05,00,07,19.60
2016,06,05,00,08,19.60
2016,06,05,00,09,19.60
2016,06,05,00,10,19.60
2016,06,05,00,11,19.60
2016,06,05,00,12,19.50
2016,06,05,00,13,19.50
2016,06,05,00,14,19.50
2016,06,05,00,15,19.40
2016,06,05,00,16,19.40
2016,06,05,00,17,19.30
2016,06,05,00,18,19.30
2016,06,05,00,19,19.30
2016,06,05,00,20,19.20
2016,06,05,00,21,19.20
2016,06,05,00,22,19.20
2016,06,05,00,23,19.20
2016,06,05,00,24,19.20
2016,06,05,00,25,19.10
2016,06,05,00,26,19.10
2016,06,05,00,27,19.10
2016,06,05,00,28,19.20
2016,06,05,00,29,19.20
2016,06,05,00,30,19.20
2016,06,05,00,31,19.20
2016,06,05,00,32,19.20
2016,06,05,00,33,19.20
2016,06,05,00,34,19.20
2016,06,05,00,35,19.20
2016,06,05,00,36,19.20
2016,06,05,00,37,19.20
2016,06,05,00,38,19.20
2016,06,05,00,39,19.20
2016,06,05,00,40,19.20
2016,06,05,00,41,19.10
2016,06,05,00,42,19.10
2016,06,05,00,43,19.10
2016,06,05,00,44,19.10
2016,06,05,00,45,19.10
2016,06,05,00,46,19.10
2016,06,05,00,47,19.00
2016,06,05,00,48,19.00
2016,06,05,00,49,19.00
2016,06,05,00,50,19.00
2016,06,05,00,51,18.90
2016,06,05,00,52,18.90
2016,06,05,00,53,18.90
2016,06,05,00,54,18.90
2016,06,05,00,55,18.90
2016,06,05,00,56,18.90
2016,06,05,00,57,18.90
2016,06,05,00,58,18.90
2016,06,05,00,59,18.90
2016,06,05,01,00,18.90
2016,06,05,01,01,18.90
2016,06,05,01,02,18.90
2016,06,05,01,03,18.90
2016,06,05,01,04,18.90
2016,06,05,01,05,19.00
2016,06,05,01,06,19.00
2016,06,05,01,07,19.00
2016,06,05,01,08,19.00
2016,06,05,01,09,19.10
2016,06,05,01,10,19.10
2016,06,05,01,11,19.20
2016,06,05,01,12,19.20
2016,06,05,01,13,19.20
2016,06,05,01,14,19.20
2016,06,05,01,15,19.20
2016,06,05,01,16,19.20
2016,06,05,01,17,19.20
2016,06,05,01,18,19.20
2016,06,05,01,19,19.30
2016,06,05,01,20,19.30
2016,06,05,01,21,19.30
2016,06,05,01,22,19.30
2016,06,05,01,23,19.30
2016,06,05,01,24,19.30
2016,06,05,01,25,19.20
2016,06,05,01,26,19.20
2016,06,05,01,27,19.20
2016,06,05,01,28,19.10
2016,06,05,01,29,19.00
2016,06,05,01,30,19.00
2016,06,05,01,31,18.90
2016,06,05,01,32,18.90
2016,06,05,01,33,18.90
2016,06,05,01,34,18.80
2016,06,05,01,35,18.80
2016,06,05,01,36,18.80
2016,06,05,01,37,18.80
2016,06,05,01,38,18.80
2016,06,05,01,39,18.80
2016,06,05,01,40,18.80
2016,06,05,01,41,18.80
2016,06,05,01,42,18.80
2016,06,05,01,43,18.80
2016,06,05,01,44,18.90
2016,06,05,01,45,18.90
2016,06,05,01,46,18.90
2016,06,05,01,47,19.00
2016,06,05,01,48,19.00
2016,06,05,01,49,19.10
2016,06,05,01,50,19.10
2016,06,05,01,51,19.20
2016,06,05,01,52,19.20
2016,06,05,01,53,19.20
2016,06,05,01,54,19.20
2016,06,05,01,55,19.30
2016,06,05,01,56,19.30
2016,06,05,01,57,19.30
2016,06,05,01,58,19.20
2016,06,05,01,59,19.20
2016,06,05,02,00,19.10
2016,06,05,02,01,19.10
2016,06,05,02,02,19.10
2016,06,05,02,03,19.00
2016,06,05,02,04,19.00
2016,06,05,02,05,18.90
2016,06,05,02,06,18.90
2016,06,05,02,07,18.90
2016,06,05,02,08,18.80
2016,06,05,02,09,18.80
2016,06,05,02,10,18.70
2016,06,05,02,11,18.70
2016,06,05,02,12,18.60
2016,06,05,02,13,18.60
2016,06,05,02,14,18.50
2016,06,05,02,15,18.40
2016,06,05,02,16,18.40
2016,06,05,02,17,18.40
2016,06,05,02,18,18.40
2016,06,05,02,19,18.40
2016,06,05,02,20,18.40
2016,06,05,02,21,18.40
2016,06,05,02,22,18.40
2016,06,05,02,23,18.40
2016,06,05,02,24,18.40
2016,06,05,02,25,18.40
2016,06,05,02,26,18.30
2016,06,05,02,27,18.30
2016,06,05,02,28,18.30
2016,06,05,02,29,18.30
2016,06,05,02,30,18.30
2016,06,05,02,31,18.30
2016,06,05,02,32,18.30
2016,06,05,02,33,18.30
2016,06,05,02,34,18.30
2016,06,05,02,35,18.30
2016,06,05,02,36,18.30
2016,06,05,02,37,18.30
2016,06,05,02,38,18.30
2016,06,05,02,39,18.30
2016,06,05,02,40,18.30
2016,06,05,02,41,18.30
2016,06,05,02,42,18.30
2016,06,05,02,43,18.30
2016,06,05,02,44,18.40
2016,06,05,02,45,18.40
2016,06,05,02,46,18.40
2016,06,05,02,47,18.40
2016,06,05,02,48,18.40
2016,06,05,02,49,18.50
2016,06,05,02,50,18.50
2016,06,05,02,51,18.50
2016,06,05,02,52,18.60
2016,06,05,02,53,18.60
2016,06,05,02,54,18.60
2016,06,05,02,55,18.60
2016,06,05,02,56,18.60
2016,06,05,02,57,18.50
2016,06,05,02,58,18.50
2016,06,05,02,59,18.50
2016,06,05,03,00,18.50
2016,06,05,03,01,18.50
2016,06,05,03,02,18.50
2016,06,05,03,03,18.50
2016,06,05,03,04,18.50
2016,06,05,03,05,18.60
2016,06,05,03,06,18.60
2016,06,05,03,07,18.60
2016,06,05,03,08,18.60
2016,06,05,03,09,18.60
2016,06,05,03,10,18.60
2016,06,05,03,11,18.60
2016,06,05,03,12,18.70
2016,06,05,03,13,18.70
2016,06,05,03,14,18.70
2016,06,05,03,15,18.70
2016,06,05,03,16,18.70
2016,06,05,03,17,18.70
2016,06,05,03,18,18.70
2016,06,05,03,19,18.70
2016,06,05,03,20,18.70
2016,06,05,03,21,18.70
2016,06,05,03,22,18.70
2016,06,05,03,23,18.60
2016,06,05,03,24,18.60
2016,06,05,03,25,18.50
2016,06,05,03,26,18.50
2016,06,05,03,27,18.40
2016,06,05,03,28,18.40
2016,06,05,03,29,18.30
2016,06,05,03,30,18.30
2016,06,05,03,31,18.30
2016,06,05,03,32,18.30
2016,06,05,03,33,18.30
2016,06,05,03,34,18.30
2016,06,05,03,35,18.30
2016,06,05,03,36,18.30
2016,06,05,03,37,18.30
2016,06,05,03,38,18.30
2016,06,05,03,39,18.30
2016,06,05,03,40,18.30
2016,06,05,03,41,18.30
2016,06,05,03,42,18.30
2016,06,05,03,43,18.30
2016,06,05,03,44,18.30
2016,06,05,03,45,18.30
2016,06,05,03,46,18.30
2016,06,05,03,47,18.30
2016,06,05,03,48,18.30
2016,06,05,03,49,18.30
2016,06,05,03,50,18.30
2016,06,05,03,51,18.30
2016,06,05,03,52,18.20
2016,06,05,03,53,18.20
2016,06,05,03,54,18.10
2016,06,05,03,55,18.10
2016,06,05,03,56,18.10
2016,06,05,03,57,18.00
2016,06,05,03,58,18.00
2016,06,05,03,59,18.00
2016,06,05,04,00,18.00
2016,06,05,04,01,18.00
2016,06,05,04,02,18.10
2016,06,05,04,03,18.10
2016,06,05,05,04,16.40
2016,06,05,05,05,16.40
2016,06,05,05,06,16.30
2016,06,05,05,07,16.30
2016,06,05,05,08,16.30
2016,06,05,05,09,16.30
2016,06,05,05,10,16.30
2016,06,05,05,11,16.30
2016,06,05,05,12,16.30
2016,06,05,05,13,16.30
2016,06,05,05,14,16.40
2016,06,05,05,15,16.40
2016,06,05,05,16,16.50
2016,06,05,05,17,16.60
2016,06,05,05,18,16.60
2016,06,05,05,19,16.70
2016,06,05,05,20,16.80
2016,06,05,05,21,16.80
2016,06,05,05,22,16.80
2016,06,05,05,23,16.90
2016,06,05,05,24,16.90
2016,06,05,05,25,16.90
2016,06,05,05,26,17.00
2016,06,05,05,27,17.00
2016,06,05,05,28,17.10
2016,06,05,05,29,17.10
2016,06,05,05,30,17.10
2016,06,05,05,31,17.10
2016,06,05,05,32,17.10
2016,06,05,05,33,17.10
2016,06,05,05,34,17.20
2016,06,05,05,35,17.20
2016,06,05,05,36,17.20
2016,06,05,05,37,17.20
2016,06,05,05,38,17.20
2016,06,05,05,39,17.20
2016,06,05,05,40,17.20
2016,06,05,05,41,17.20
2016,06,05,05,42,17.10
2016,06,05,05,43,17.10
2016,06,05,05,44,17.10
2016,06,05,05,45,17.00
2016,06,05,05,46,17.00
2016,06,05,05,47,16.90
2016,06,05,05,48,16.90
2016,06,05,05,49,16.80
2016,06,05,05,50,16.80
2016,06,05,05,51,16.70
2016,06,05,05,52,16.70
2016,06,05,05,53,16.60
2016,06,05,05,54,16.60
2016,06,05,05,55,16.50
2016,06,05,05,56,16.40
2016,06,05,05,57,16.40
2016,06,05,05,58,16.40
2016,06,05,05,59,16.30
2016,06,05,06,00,16.30
2016,06,05,06,01,16.30
2016,06,05,06,02,16.20
2016,06,05,06,03,16.20
2016,06,05,06,04,16.20
2016,06,05,06,05,16.20
2016,06,05,06,06,16.10
2016,06,05,06,07,16.10
2016,06,05,06,08,16.10
2016,06,05,06,09,16.10
2016,06,05,06,10,16.10
2016,06,05,06,11,16.10
2016,06,05,06,12,16.10
2016,06,05,06,13,16.10
2016,06,05,06,14,16.20
2016,06,05,06,15,16.20
2016,06,05,06,16,16.20
2016,06,05,06,17,16.20
2016,06,05,06,18,16.20
2016,06,05,06,19,16.20
2016,06,05,06,20,16.20
2016,06,05,06,21,16.20
2016,06,05,06,22,16.30
2016,06,05,06,23,16.30
2016,06,05,06,24,16.30
2016,06,05,06,25,16.40
2016,06,05,06,26,16.50
2016,06,05,06,27,16.50
2016,06,05,06,28,16.60
2016,06,05,06,29,16.70
2016,06,05,06,30,16.70
2016,06,05,06,31,16.80
2016,06,05,06,32,16.80
2016,06,05,06,33,16.90
2016,06,05,06,34,17.00
2016,06,05,06,35,17.00
2016,06,05,06,36,17.10
2016,06,05,06,37,17.10
2016,06,05,06,38,17.20
2016,06,05,06,39,17.30
2016,06,05,06,40,17.30
2016,06,05,06,41,17.40
2016,06,05,06,42,17.50
2016,06,05,06,43,17.50
2016,06,05,06,44,17.60
2016,06,05,06,45,17.70
2016,06,05,06,46,17.80
2016,06,05,06,47,17.90
2016,06,05,06,48,17.90
2016,06,05,06,49,18.00
2016,06,05,06,50,18.10
2016,06,05,06,51,18.20
2016,06,05,06,52,18.20
2016,06,05,06,53,18.30
2016,06,05,06,54,18.40
2016,06,05,06,55,18.50
2016,06,05,06,56,18.50
2016,06,05,06,57,18.60
2016,06,05,06,58,18.70
2016,06,05,06,59,18.70
2016,06,05,07,00,18.80
2016,06,05,07,01,18.80
2016,06,05,07,02,18.90
2016,06,05,07,03,18.90
2016,06,05,07,04,18.90
2016,06,05,07,05,19.00
2016,06,05,07,06,19.00
2016,06,05,07,07,19.10
2016,06,05,07,08,19.10
2016,06,05,07,09,19.20
2016,06,05,07,10,19.20
2016,06,05,07,11,19.20
2016,06,05,07,12,19.30
2016,06,05,07,13,19.40
2016,06,05,07,14,19.40
2016,06,05,07,15,19.50
2016,06,05,07,16,19.60
2016,06,05,07,17,19.70
2016,06,05,07,18,19.80
2016,06,05,07,19,19.80
2016,06,05,07,20,19.90
2016,06,05,07,21,20.00
2016,06,05,07,22,20.10
2016,06,05,07,23,20.10
2016,06,05,07,24,20.20
2016,06,05,07,25,20.30
2016,06,05,07,26,20.40
2016,06,05,07,27,20.40
2016,06,05,07,28,20.50
2016,06,05,07,29,20.60
2016,06,05,07,30,20.60
2016,06,05,07,31,20.70
2016,06,05,07,32,20.80
2016,06,05,07,33,20.80
2016,06,05,07,34,20.90
2016,06,05,07,35,20.90
2016,06,05,07,36,20.90
2016,06,05,07,37,21.00
2016,06,05,07,38,21.00
2016,06,05,07,39,21.10
2016,06,05,07,40,21.10
2016,06,05,07,41,21.10
2016,06,05,07,42,21.20
2016,06,05,07,43,21.20
2016,06,05,07,44,21.20
2016,06,05,07,45,21.30
2016,06,05,07,46,21.30
2016,06,05,07,47,21.30
2016,06,05,07,48,21.40
2016,06,05,07,49,21.40
2016,06,05,07,50,21.50
2016,06,05,07,51,21.50
2016,06,05,07,52,21.60
2016,06,05,07,53,21.60
2016,06,05,07,54,21.60
2016,06,05,07,55,21.70
2016,06,05,07,56,21.70
2016,06,05,07,57,21.70
2016,06,05,07,58,21.70
2016,06,05,07,59,21.70
2016,06,05,08,00,21.70
2016,06,05,08,01,21.70
2016,06,05,08,02,21.70
2016,06,05,08,03,21.60
2016,06,05,08,04,21.60
2016,06,05,08,05,21.60
2016,06,05,08,06,21.60
2016,06,05,08,07,21.50
2016,06,05,08,08,21.50
2016,06,05,08,09,21.40
2016,06,05,08,10,21.40
2016,06,05,08,11,21.40
2016,06,05,08,12,21.40
2016,06,05,08,13,21.40
2016,06,05,08,14,21.40
2016,06,05,08,15,21.30
2016,06,05,08,16,21.30
2016,06,05,08,17,21.30
2016,06,05,08,18,21.30
2016,06,05,08,19,21.30
2016,06,05,08,20,21.40
2016,06,05,08,21,21.40
2016,06,05,08,22,21.40
2016,06,05,08,23,21.40
2016,06,05,08,24,21.40
2016,06,05,08,25,21.40
2016,06,05,08,26,21.50
2016,06,05,08,27,21.50
2016,06,05,08,28,21.50
2016,06,05,08,29,21.60
2016,06,05,08,30,21.60
2016,06,05,08,31,21.60
2016,06,05,08,32,21.60
2016,06,05,08,33,21.60
2016,06,05,08,34,21.60
2016,06,05,08,35,21.60
2016,06,05,08,36,21.60
2016,06,05,08,37,21.60
2016,06,05,08,38,21.60
2016,06,05,08,39,21.60
2016,06,05,08,40,21.60
2016,06,05,08,41,21.60
2016,06,05,08,42,21.50
2016,06,05,08,43,21.50
2016,06,05,08,44,21.50
2016,06,05,08,45,21.40
2016,06,05,08,46,21.40
2016,06,05,08,47,21.40
2016,06,05,08,48,21.40
2016,06,05,08,49,21.50
2016,06,05,08,50,21.50
2016,06,05,08,51,21.50
2016,06,05,08,52,21.50
2016,06,05,08,53,21.60
2016,06,05,08,54,21.60
2016,06,05,08,55,21.70
2016,06,05,08,56,21.70
2016,06,05,08,57,21.80
2016,06,05,08,58,21.80
2016,06,05,08,59,21.80
2016,06,05,09,00,21.90
2016,06,05,09,01,21.90
2016,06,05,09,02,22.00
2016,06,05,09,03,22.00
2016,06,05,09,04,22.10
2016,06,05,09,05,22.20
2016,06,05,09,06,22.20
2016,06,05,09,07,22.20
2016,06,05,09,08,22.30
2016,06,05,09,09,22.30
2016,06,05,09,10,22.40
2016,06,05,09,11,22.40
2016,06,05,09,12,22.40
2016,06,05,09,13,22.50
2016,06,05,09,14,22.50
2016,06,05,09,15,22.50
2016,06,05,09,16,22.50
2016,06,05,09,17,22.50
2016,06,05,09,18,22.60
2016,06,05,09,19,22.50
2016,06,05,09,20,22.50
2016,06,05,09,21,22.50
2016,06,05,09,22,22.60
2016,06,05,09,23,22.60
2016,06,05,09,24,22.60
2016,06,05,09,25,22.70
2016,06,05,09,26,22.80
2016,06,05,09,27,22.80
2016,06,05,09,28,22.80
2016,06,05,09,29,22.80
2016,06,05,09,30,22.90
2016,06,05,09,31,22.90
2016,06,05,09,32,22.90
2016,06,05,09,33,22.90
2016,06,05,09,34,22.90
2016,06,05,09,35,22.90
2016,06,05,09,36,22.90
2016,06,05,09,37,22.90
2016,06,05,09,38,22.90
2016,06,05,09,39,23.00
2016,06,05,09,40,23.00
2016,06,05,09,41,23.10
2016,06,05,09,42,23.10
2016,06,05,09,43,23.20
2016,06,05,09,44,23.20
2016,06,05,09,45,23.20
2016,06,05,09,46,23.30
2016,06,05,09,47,23.30
2016,06,05,09,48,23.40
2016,06,05,09,49,23.40
2016,06,05,09,50,23.50
2016,06,05,09,51,23.50
2016,06,05,09,52,23.50
2016,06,05,09,53,23.50
2016,06,05,09,54,23.40
2016,06,05,09,55,23.50
2016,06,05,09,56,23.50
2016,06,05,09,57,23.60
2016,06,05,09,58,23.70
2016,06,05,09,59,23.70
2016,06,05,10,00,23.80
2016,06,05,10,01,23.80
2016,06,05,10,02,23.80
2016,06,05,10,03,23.80
2016,06,05,10,04,23.80
2016,06,05,10,05,23.80
2016,06,05,10,06,23.70
2016,06,05,10,07,23.70
2016,06,05,10,08,23.70
2016,06,05,10,09,23.70
2016,06,05,10,10,23.70
2016,06,05,10,11,23.80
2016,06,05,10,12,23.80
2016,06,05,10,13,23.80
2016,06,05,10,14,23.90
2016,06,05,10,15,24.00
2016,06,05,10,16,24.00
2016,06,05,10,17,24.10
2016,06,05,10,18,24.10
2016,06,05,10,19,24.20
2016,06,05,10,20,24.20
2016,06,05,10,21,24.20
2016,06,05,10,22,24.30
2016,06,05,10,23,24.30
2016,06,05,10,24,24.30
2016,06,05,10,25,24.30
2016,06,05,10,26,24.30
2016,06,05,10,27,24.40
2016,06,05,10,28,24.40
2016,06,05,10,29,24.50
2016,06,05,10,30,24.60
2016,06,05,10,31,24.60
2016,06,05,10,32,24.60
2016,06,05,10,33,24.60
2016,06,05,10,34,24.60
2016,06,05,10,35,24.50
2016,06,05,10,36,24.50
2016,06,05,10,37,24.50
2016,06,05,10,38,24.50
2016,06,05,10,39,24.60
2016,06,05,10,40,24.60
2016,06,05,10,41,24.70
2016,06,05,10,42,24.80
2016,06,05,10,43,24.90
2016,06,05,10,44,25.00
2016,06,05,10,45,25.00
2016,06,05,10,46,25.10
2016,06,05,10,47,25.10
2016,06,05,10,48,25.10
2016,06,05,10,49,25.00
2016,06,05,10,50,25.00
2016,06,05,10,51,25.00
2016,06,05,10,52,25.00
2016,06,05,10,53,24.90
2016,06,05,10,54,24.90
2016,06,05,10,55,25.00
2016,06,05,10,56,25.00
2016,06,05,10,57,25.10
2016,06,05,10,58,25.10
2016,06,05,10,59,25.10
2016,06,05,11,00,25.10
2016,06,05,11,01,25.20
2016,06,05,11,02,25.20
2016,06,05,11,03,25.20
2016,06,05,11,04,25.20
2016,06,05,11,05,25.20
2016,06,05,11,06,25.30
2016,06,05,11,07,25.30
2016,06,05,11,08,25.40
2016,06,05,11,09,25.50
2016,06,05,11,10,25.60
2016,06,05,11,11,25.70
2016,06,05,11,12,25.70
2016,06,05,11,13,25.70
2016,06,05,11,14,25.80
2016,06,05,11,15,25.80
2016,06,05,11,16,25.80
2016,06,05,11,17,25.80
2016,06,05,11,18,25.90
2016,06,05,11,19,25.80
2016,06,05,11,20,25.90
2016,06,05,11,21,25.90
2016,06,05,11,22,25.80
2016,06,05,11,23,25.80
2016,06,05,11,24,25.80
2016,06,05,11,25,25.80
2016,06,05,11,26,25.80
2016,06,05,11,27,25.80
2016,06,05,11,28,25.90
2016,06,05,11,29,25.90
2016,06,05,11,30,25.90
2016,06,05,11,31,25.90
2016,06,05,11,32,26.00
2016,06,05,11,33,26.00
2016,06,05,11,34,26.10
2016,06,05,11,35,26.20
2016,06,05,11,36,26.20
2016,06,05,11,37,26.30
2016,06,05,11,38,26.30
2016,06,05,11,39,26.40
2016,06,05,11,40,26.50
2016,06,05,11,41,26.50
2016,06,05,11,42,26.50
2016,06,05,11,43,26.50
2016,06,05,11,44,26.40
2016,06,05,11,45,26.50
2016,06,05,11,46,26.50
2016,06,05,11,47,26.60
2016,06,05,11,48,26.60
2016,06,05,11,49,26.50
2016,06,05,11,50,26.50
2016,06,05,11,51,26.40
2016,06,05,11,52,26.40
2016,06,05,11,53,26.40
2016,06,05,11,54,26.30
2016,06,05,11,55,26.30
2016,06,05,11,56,26.30
2016,06,05,11,57,26.30
2016,06,05,11,58,26.30
2016,06,05,11,59,26.30
2016,06,05,12,00,26.30
2016,06,05,12,01,26.30
2016,06,05,12,02,26.40
2016,06,05,12,03,26.40
2016,06,05,12,04,26.50
2016,06,05,12,05,26.60
2016,06,05,12,06,26.60
2016,06,05,12,07,26.70
2016,06,05,12,08,26.70
2016,06,05,12,09,26.60
2016,06,05,12,10,26.60
2016,06,05,12,11,26.60
2016,06,05,12,12,26.70
2016,06,05,12,13,26.70
2016,06,05,12,14,26.80
2016,06,05,12,15,27.00
2016,06,05,12,16,27.10
2016,06,05,12,17,27.20
2016,06,05,12,18,27.30
2016,06,05,12,19,27.40
2016,06,05,12,20,27.50
2016,06,05,12,21,27.60
2016,06,05,12,22,27.70
2016,06,05,12,23,27.70
2016,06,05,12,24,27.70
2016,06,05,12,25,27.70
2016,06,05,12,26,27.70
2016,06,05,12,27,27.70
2016,06,05,12,28,27.60
2016,06,05,12,29,27.50
2016,06,05,12,30,27.50
2016,06,05,12,31,27.50
2016,06,05,12,32,27.60
2016,06,05,12,33,27.60
2016,06,05,12,34,27.70
2016,06,05,12,35,27.80
2016,06,05,12,36,27.80
2016,06,05,12,37,27.90
2016,06,05,12,38,28.10
2016,06,05,12,39,28.20
2016,06,05,12,40,28.30
2016,06,05,12,41,28.30
2016,06,05,12,42,28.30
2016,06,05,12,43,28.30
2016,06,05,12,44,28.30
2016,06,05,12,45,28.30
2016,06,05,12,46,28.30
2016,06,05,12,47,28.20
2016,06,05,12,48,28.10
2016,06,05,12,49,28.10
2016,06,05,12,50,28.10
2016,06,05,12,51,28.10
2016,06,05,12,52,28.10
2016,06,05,12,53,28.10
2016,06,05,12,54,28.10
2016,06,05,12,55,28.10
2016,06,05,12,56,28.10
2016,06,05,12,57,28.10
2016,06,05,12,58,28.20
2016,06,05,12,59,28.20
2016,06,05,13,00,28.20
2016,06,05,13,01,28.30
2016,06,05,13,02,28.40
2016,06,05,13,03,28.40
2016,06,05,13,04,28.40
2016,06,05,13,05,28.40
2016,06,05,13,06,28.40
2016,06,05,13,07,28.50
2016,06,05,13,08,28.50
2016,06,05,13,09,28.40
2016,06,05,13,10,28.40
2016,06,05,13,11,28.40
2016,06,05,13,12,28.40
2016,06,05,13,13,28.40
2016,06,05,13,14,28.40
2016,06,05,13,15,28.50
2016,06,05,13,16,28.50
2016,06,05,13,17,28.60
2016,06,05,13,18,28.60
2016,06,05,13,19,28.70
2016,06,05,13,20,28.70
2016,06,05,13,21,28.70
2016,06,05,13,22,28.80
2016,06,05,13,23,28.70
2016,06,05,13,24,28.70
2016,06,05,13,25,28.70
2016,06,05,13,26,28.70
2016,06,05,13,27,28.70
2016,06,05,13,28,28.70
2016,06,05,13,29,28.70
2016,06,05,13,30,28.70
2016,06,05,13,31,28.70
2016,06,05,13,32,28.70
2016,06,05,13,33,28.70
2016,06,05,13,34,28.70
2016,06,05,13,35,28.70
2016,06,05,13,36,28.70
2016,06,05,13,37,28.70
2016,06,05,13,38,28.70
2016,06,05,13,39,28.70
2016,06,05,13,40,28.70
2016,06,05,13,41,28.70
2016,06,05,13,42,28.70
2016,06,05,13,43,28.80
2016,06,05,13,44,28.80
2016,06,05,13,45,28.70
2016,06,05,13,46,28.70
2016,06,05,13,47,28.60
2016,06,05,13,48,28.60
2016,06,05,13,49,28.50
2016,06,05,13,50,28.50
2016,06,05,13,51,28.40
2016,06,05,13,52,28.40
2016,06,05,13,53,28.30
2016,06,05,13,54,28.30
2016,06,05,13,55,28.40
2016,06,05,13,56,28.50
2016,06,05,13,57,28.60
2016,06,05,13,58,28.70
2016,06,05,13,59,28.70
2016,06,05,14,00,28.60
2016,06,05,14,01,28.60
2016,06,05,14,02,28.60
2016,06,05,14,03,28.60
2016,06,05,14,04,28.60
2016,06,05,14,05,28.50
2016,06,05,14,06,28.60
2016,06,05,14,07,28.60
2016,06,05,14,08,28.70
2016,06,05,14,09,28.70
2016,06,05,14,10,28.80
2016,06,05,14,11,28.80
2016,06,05,14,12,28.80
2016,06,05,14,13,28.80
2016,06,05,14,14,28.90
2016,06,05,14,15,29.00
2016,06,05,14,16,29.00
2016,06,05,14,17,29.00
2016,06,05,14,18,29.00
2016,06,05,14,19,29.00
2016,06,05,14,20,29.10
2016,06,05,14,21,29.10
2016,06,05,14,22,29.10
2016,06,05,14,23,29.00
2016,06,05,14,24,29.00
2016,06,05,14,25,28.90
2016,06,05,14,26,28.90
2016,06,05,14,27,28.90
2016,06,05,14,28,28.90
2016,06,05,14,29,28.90
2016,06,05,14,30,28.90
2016,06,05,14,31,28.90
2016,06,05,14,32,29.00
2016,06,05,14,33,29.10
2016,06,05,14,34,29.20
2016,06,05,14,35,29.30
2016,06,05,14,36,29.40
2016,06,05,14,37,29.40
2016,06,05,14,38,29.50
2016,06,05,14,39,29.60
2016,06,05,14,40,29.70
2016,06,05,14,41,29.80
2016,06,05,14,42,29.90
2016,06,05,14,43,30.00
2016,06,05,14,44,30.10
2016,06,05,14,45,30.20
2016,06,05,14,46,30.30
2016,06,05,14,47,30.40
2016,06,05,14,48,30.30
2016,06,05,14,49,30.30
2016,06,05,14,50,30.20
2016,06,05,14,51,30.20
2016,06,05,14,52,30.20
2016,06,05,14,53,30.20
2016,06,05,14,54,30.20
2016,06,05,14,55,30.10
2016,06,05,14,56,30.00
2016,06,05,14,57,29.90
2016,06,05,14,58,29.90
2016,06,05,14,59,29.80
2016,06,05,15,00,29.80
2016,06,05,15,01,29.70
2016,06,05,15,02,29.60
2016,06,05,15,03,29.50
2016,06,05,15,04,29.40
2016,06,05,15,05,29.30
2016,06,05,15,06,29.30
2016,06,05,15,07,29.20
2016,06,05,15,08,29.20
2016,06,05,15,09,29.20
2016,06,05,15,10,29.20
2016,06,05,15,11,29.20
2016,06,05,15,12,29.30
2016,06,05,15,13,29.40
2016,06,05,15,14,29.50
2016,06,05,15,15,29.60
2016,06,05,15,16,29.60
2016,06,05,15,17,29.70
2016,06,05,15,18,29.70
2016,06,05,15,19,29.80
2016,06,05,15,20,29.80
2016,06,05,15,21,29.90
2016,06,05,15,22,29.90
2016,06,05,15,23,30.00
2016,06,05,15,24,30.10
2016,06,05,15,25,30.10
2016,06,05,15,26,30.10
2016,06,05,15,27,30.10
2016,06,05,15,28,30.10
2016,06,05,15,29,30.10
2016,06,05,15,30,30.10
2016,06,05,15,31,30.10
2016,06,05,15,32,30.10
2016,06,05,15,33,30.10
2016,06,05,15,34,30.10
2016,06,05,15,35,30.10
2016,06,05,15,36,30.10
2016,06,05,15,37,30.10
2016,06,05,15,38,30.10
2016,06,05,15,39,30.10
2016,06,05,15,40,30.10
2016,06,05,15,41,30.10
2016,06,05,15,42,30.10
2016,06,05,15,43,30.10
2016,06,05,15,44,30.10
2016,06,05,15,45,30.10
2016,06,05,15,46,30.00
2016,06,05,15,47,29.90
2016,06,05,15,48,29.90
2016,06,05,15,49,29.90
2016,06,05,15,50,29.90
2016,06,05,15,51,29.90
2016,06,05,15,52,29.90
2016,06,05,15,53,29.90
2016,06,05,15,54,30.00
2016,06,05,15,55,30.10
2016,06,05,15,56,30.10
2016,06,05,15,57,30.10
2016,06,05,15,58,30.10
2016,06,05,15,59,30.10
2016,06,05,16,00,30.00
2016,06,05,16,01,30.00
2016,06,05,16,02,30.00
2016,06,05,16,03,30.00
2016,06,05,16,04,30.00
2016,06,05,16,05,30.00
2016,06,05,16,06,30.00
2016,06,05,16,07,29.90
2016,06,05,16,08,29.90
2016,06,05,16,09,29.90
2016,06,05,16,10,30.00
2016,06,05,16,11,30.00
2016,06,05,16,12,30.10
2016,06,05,16,13,30.20
2016,06,05,16,14,30.20
2016,06,05,16,15,30.30
2016,06,05,16,16,30.30
2016,06,05,16,17,30.30
2016,06,05,16,18,30.40
2016,06,05,16,19,30.40
2016,06,05,16,20,30.50
2016,06,05,16,21,30.60
2016,06,05,16,22,30.60
2016,06,05,16,23,30.60
2016,06,05,16,24,30.70
2016,06,05,16,25,30.70
2016,06,05,16,26,30.80
2016,06,05,16,27,30.80
2016,06,05,16,28,30.90
2016,06,05,16,29,31.00
2016,06,05,16,30,31.10
2016,06,05,16,31,31.10
2016,06,05,16,32,31.00
2016,06,05,16,33,31.00
2016,06,05,16,34,30.90
2016,06,05,16,35,30.90
2016,06,05,16,36,31.00
2016,06,05,16,37,31.00
2016,06,05,16,38,31.10
2016,06,05,16,39,31.10
2016,06,05,16,40,31.10
2016,06,05,16,41,31.20
2016,06,05,16,42,31.20
2016,06,05,16,43,31.30
2016,06,05,16,44,31.30
2016,06,05,16,45,31.30
2016,06,05,16,46,31.40
2016,06,05,16,47,31.50
2016,06,05,16,48,31.50
2016,06,05,16,49,31.60
2016,06,05,16,50,31.60
2016,06,05,16,51,31.60
2016,06,05,16,52,31.70
2016,06,05,16,53,31.70
2016,06,05,16,54,31.70
2016,06,05,16,55,31.70
2016,06,05,16,56,31.70
2016,06,05,16,57,31.80
2016,06,05,16,58,31.80
2016,06,05,16,59,31.80
2016,06,05,17,00,31.80
2016,06,05,17,01,31.80
2016,06,05,17,02,31.80
2016,06,05,17,03,31.70
2016,06,05,17,04,31.70
2016,06,05,17,05,31.70
2016,06,05,17,06,31.70
2016,06,05,17,07,31.70
2016,06,05,17,08,31.70
2016,06,05,17,09,31.60
2016,06,05,17,10,31.60
2016,06,05,17,11,31.50
2016,06,05,17,12,31.40
2016,06,05,17,13,31.40
2016,06,05,17,14,31.30
2016,06,05,17,15,31.20
2016,06,05,17,16,31.20
2016,06,05,17,17,31.10
2016,06,05,17,18,31.00
2016,06,05,17,19,30.90
2016,06,05,17,20,30.90
2016,06,05,17,21,30.80
2016,06,05,17,22,30.70
2016,06,05,17,23,30.70
2016,06,05,17,24,30.60
2016,06,05,17,25,30.60
2016,06,05,17,26,30.60
2016,06,05,17,27,30.60
2016,06,05,17,28,30.60
2016,06,05,17,29,30.70
2016,06,05,17,30,30.60
2016,06,05,17,31,30.60
2016,06,05,17,32,30.50
2016,06,05,17,33,30.40
2016,06,05,17,34,30.30
2016,06,05,17,35,30.30
2016,06,05,17,36,30.30
2016,06,05,17,37,30.30
2016,06,05,17,38,30.30
2016,06,05,17,39,30.30
2016,06,05,17,40,30.30
2016,06,05,17,41,30.40
2016,06,05,17,42,30.30
2016,06,05,17,43,30.30
2016,06,05,17,44,30.30
2016,06,05,17,45,30.20
2016,06,05,17,46,30.20
2016,06,05,17,47,30.20
2016,06,05,17,48,30.20
2016,06,05,17,49,30.20
2016,06,05,17,50,30.10
2016,06,05,17,51,30.10
2016,06,05,17,52,30.00
2016,06,05,17,53,30.00
2016,06,05,17,54,29.90
2016,06,05,17,55,29.90
2016,06,05,17,56,29.80
2016,06,05,17,57,29.70
2016,06,05,17,58,29.60
2016,06,05,17,59,29.60
2016,06,05,18,00,29.50
2016,06,05,18,01,29.50
2016,06,05,18,02,29.40
2016,06,05,18,03,29.40
2016,06,05,18,04,29.40
2016,06,05,18,05,29.40
2016,06,05,18,06,29.30
2016,06,05,18,07,29.30
2016,06,05,18,08,29.30
2016,06,05,18,09,29.30
2016,06,05,18,10,29.30
2016,06,05,18,11,29.30
2016,06,05,18,12,29.20
2016,06,05,18,13,29.20
2016,06,05,18,14,29.30
2016,06,05,18,15,29.30
2016,06,05,18,16,29.30
2016,06,05,18,17,29.30
2016,06,05,18,18,29.30
2016,06,05,18,19,29.30